Showing default

SPIP, 58298

Orbit data source: Space-Track

SPIP, 58298 is a payload satellite owned by Aerospacelab (BE) in SSO that was launched on Sat, 11 Nov 2023 UTC via an FALCON 9 launch vehicle from the Air Force Western Test Range (AFWTR). Payload-class satellites include a variety of spacecraft equipped with specific instruments for various scientific and technological missions. These include communications satellites like Starlink; space stations such as the ISS; scientific satellites like the Hubble; Earth observation satellites from companies like Planet Labs, Umbra, and HawkEye 360; GPS; miniature CubeSats for education and research; and military/defense satellites.

Loading next visibility...
Identifier
58298, 2023-174AU
Orbit
SSO
Country
Flag of BEBE / BEL
Related business
Manufacturer
Aerospacelab
Mission
Operational Commercial Imaging
Bus & Motor
VSP, Unknown motor
Mass
120 kg wet, 120 kg dry
Launch date (UTC)
2023-11-11 (2 years ago)
Launch vehicle
FALCON 9
Launch site
Air Force Western Test Range (AFWTR)
Object type
Payload
Rocket body
Debris
Shape & HBR
Box + 2 Pan, 0.8 m
Radar Cross Section
0.930 m², Large (>1 m²)

Expand to show TLE details & history
Last TLE update: 16 hours ago

TLE from 16 hours ago
0 SPIP
1 58298U 23174AU  25291.30888791  .00008049  00000-0  32791-3 0  9998
2 58298  97.4109   5.2660 0008869 327.4278  32.6412 15.24703705107883
Epoch: 2025-10-18T07:24Z
TLE epoch observation values (Epoch: 2025-10-18T07:24:47.915Z)
Latitude
0.00003°
Longitude
-132.97541°
Altitude
489.642 km
Speed
7.623 km/s
True Right ascension
00h 21m 03s
True Declination
0° 00' 00"
Sunlit
Object was in full shadow at epoch
Visualization orbit readout
Latitude
Unknown
Longitude
Unknown
Altitude
Unknown
Speed
Unknown
Apparent Right ascension
Unknown
Apparent Declination
Unknown
Sunlit
N/A
Visualization observer readout
Local Sidereal Time
18:31:20
Azimuth
Unknown
Elevation
Unknown
Doppler factor
Unknown
Orbital elements
Apogee altitude
494.725 km
Perigee altitude
482.545 km
Semi-major axis
6,866.772 km
Eccentricity
0.00089
Inclination
97.4109°
RAAN
5.266°
Arg. of periapsis
327.4278°
True anomaly
32.69607°
Mean anomaly
32.6412°
Eccentric anomaly
32.66863°
Mean motion
3.81429 °/min
Orbital period
94.38 mins
BSTAR
0.00032791
Loading maneuver chart data...
Computing Atmospheric mass density...

Documentation

Showing up to 5 results
|